Regional Weather Roundup
Issued by NWS San Angelo, TX

Home | Current Version | Previous Version | Text Only | Print | Product List | Glossary On
Versions: 1 2 3 4 5 6 7 8 9 10 11 12 13 14 15 16 17 18 19 20 21 22 23 24 25 26 27 28 29 30 31 32 33 34 35 36 37 38 39 40 41 42 43 44 45 46 47 48 49 50
000
ASUS44 KSJT 301311
RWRSJT
WEST CENTRAL TEXAS REGIONAL WEATHER ROUNDUP
NATIONAL WEATHER SERVICE SAN ANGELO TX
800 AM CDT SAT APR 30 2016

NOTE: "FAIR" INDICATES FEW OR NO CLOUDS BELOW 12,000 FEET WITH NO
SIGNIFICANT WEATHER AND/OR OBSTRUCTIONS TO VISIBILITY.

TXZ049-054-064>066-071>073-076>078-098-099-113-114-127-128-139-140-
154-155-168>170-301400
...LOCATIONS ACROSS WEST CENTRAL TEXAS...

CITY           SKY/WX    TMP DP  RH WIND       PRES   REMARKS
SAN ANGELO     SUNNY     57  49  74 NE10      29.82R
ABILENE        MOSUNNY   51  46  83 N16       29.85S
DYESS AFB      MOSUNNY   51  47  86 N10       29.85R
JUNCTION       SUNNY     54  49  83 W5        29.80R HAZE
SWEETWATER     MOSUNNY   50  49  99 N9        29.89R
BROWNWOOD      SUNNY     54  48  82 N16G24    29.81R
COLEMAN        SUNNY     53  47  79 N10       29.83S
SONORA         SUNNY     52  43  71 CALM      29.86R
OZONA          FAIR      52  45  76 CALM      29.84S
BRADY          NOT AVBL
$$

TEXAS PANHANDLE/OKLAHOMA PANHANDLE

CITY           SKY/WX    TMP DP  RH WIND       PRES   REMARKS
AMARILLO       SUNNY     39  35  86 N3        29.86R
BORGER         MOSUNNY   40  35  83 W3        29.86R
CANADIAN       SUNNY     42  38  87 W7        29.84S WCI  37
DALHART        CLOUDY    42  35  76 N8        29.85R WCI  37
DUMAS          PTSUNNY   37  35  92 NW3       29.84S
GUYMON         NOT AVBL
HEREFORD       MOSUNNY   38  37  98 CALM      29.86R
PAMPA          SUNNY     40  38  93 NW8       29.85R WCI  34
PERRYTON       SUNNY     40  37  92 W7        29.83S WCI  35
$$

SOUTHERN PANHANDLE/SOUTH PLAINS/ROLLING PLAINS

CITY           SKY/WX    TMP DP  RH WIND       PRES   REMARKS
LUBBOCK        MOSUNNY   44  38  79 N12       29.84S WCI  38
SNYDER           N/A     50  46  88 NE8       29.86S
CHILDRESS      SUNNY     46  39  76 N13       29.84R
SEMINOLE       PTSUNNY   48  43  81 CALM      29.88R
$$

PERMIAN BASIN

CITY           SKY/WX    TMP DP  RH WIND       PRES   REMARKS
MIDLAND        MOSUNNY   54  48  80 NE6       29.85R
ODESSA         PTSUNNY   53  47  79 NE9       29.86R
WINK           CLEAR     51  35  54 N7        29.83R
$$

FAR WEST/SOUTHWEST MOUNTAINS/TRANS PECOS

CITY           SKY/WX    TMP DP  RH WIND       PRES   REMARKS
ALPINE         SUNNY     48  18  30 SW5       29.98R
DRYDEN           N/A     65  21  18 W8        29.81R
EL PASO        PTCLDY    56  30  37 SW5       29.87R
FORT STOCKTON  CLEAR     56  24  29 SW10      29.85R
GUADALUPE PASS CLEAR     48  25  40 SW12      29.92R
MARFA          CLEAR     40  17  39 CALM      29.95R
PECOS          MOSUNNY   55  26  33 W7        29.85R
$$

DALLAS/FORT WORTH METROPLEX

CITY           SKY/WX    TMP DP  RH WIND       PRES   REMARKS
DFW AIRPORT    DRIZZLE   62  57  83 NW12      29.77R
FTW MEACHAM    CLOUDY    60  55  83 N9        29.79R
DAL-EXECUTIVE  CLOUDY    63  59  87 NW7       29.75R
GRAND PRAIRIE  CLOUDY    63  57  82 NW5       29.78R
ADDISON        CLOUDY    63  63 100 NW6       29.76R FOG
MESQUITE         N/A     63  63 100 NW6       29.76R FOG
LANCASTER      CLOUDY    64  60  87 NW6       29.75R
$$

NORTH CENTRAL TEXAS

CITY           SKY/WX    TMP DP  RH WIND       PRES   REMARKS
SHRMAN/DENISON CLOUDY    56  54  92 NW10      29.78R FOG
GAINESVILLE    CLOUDY    56  55  94 N9        29.80R
BRIDGEPORT     CLOUDY    56  55  94 NW8       29.82R
DENTON         CLOUDY    59  56  89 N9        29.77R
WAXAHACHIE     CLOUDY    63  63 100 NW6       29.77R
GRANBURY       CLOUDY    59  55  87 NW9       29.80R
$$

WESTERN NORTH TEXAS

CITY           SKY/WX    TMP DP  RH WIND       PRES   REMARKS
WICHITA FALLS  SUNNY     51  46  83 N10       29.82R
VERNON         SUNNY     48  40  74 N7        29.85R
BRECKENRIDGE   CLOUDY    53  47  82 N9        29.85R
COMANCHE       CLOUDY    54  54 100 NW13G20   29.80R
$$

CENTRAL AND SOUTH CENTRAL TEXAS

CITY           SKY/WX    TMP DP  RH WIND       PRES   REMARKS
AUSTIN/BERGSTM MOSUNNY   68  66  93 CALM      29.70R
WACO           CLOUDY    63  60  90 N14       29.72F
HILLSBORO      CLOUDY    62  60  95 NW9       29.75R
TEMPLE         CLOUDY    63  61  94 N10       29.72R
KILLEEN-GRAY   MOSUNNY   62  59  91 N17       29.74R
FORT HOOD      SUNNY     62  60  94 NW13      29.71R
GEORGETOWN     SUNNY     64  63  94 N8        29.73
LAGO VISTA     FAIR      64  61  88 N6        29.75R
SAN MARCOS     SUNNY     63  63 100 W6        29.71R
NEW BRAUNFELS  SUNNY     66  62  87 N6        29.70R
RANDOLPH AFB   SUNNY     62  60  96 NW6       29.72R
SAN ANTONIO    MOSUNNY   62  57  83 NW8       29.72R
STINSON        SUNNY     64  59  83 CALM      29.70R
PLEASANTON     NOT AVBL
LA GRANGE        N/A     68  62  81 NE3       29.66R
GIDDINGS       MOSUNNY   67  59  76 N6        29.72R
$$

EAST TEXAS

CITY           SKY/WX    TMP DP  RH WIND       PRES   REMARKS
PARIS          CLOUDY    66  59  77 SE10      29.75R
CLARKSVILLE    NOT AVBL
TYLER          PTSUNNY   67  66  97 S3        29.74R
LONGVIEW       CLOUDY    65  64  97 E7        29.70S
PALESTINE      CLOUDY    68  67  96 CALM      29.77R
NACOGDOCHES    CLOUDY    66  64  94 SE7       29.72R
$$

TEXAS HILL COUNTRY AND EDWARDS PLATEAU

CITY           SKY/WX    TMP DP  RH WIND       PRES   REMARKS
LLANO          MOSUNNY   63  55  77 N7        29.79R
HORSESHOE BAY  FAIR      64  62  95 NW8       29.77R
KERRVILLE      PTSUNNY   59  57  94 NW3       29.77R
FREDERICKSBRG  SUNNY     61  55  82 N12       29.77R
ROCKSPRINGS    SUNNY     61  45  55 CALM      29.82R
HONDO          SUNNY     60  57  89 N3        29.75R
UVALDE         SUNNY     59  57  96 CALM      29.75R
DEL RIO        PTSUNNY   62  57  83 N5        29.76R
$$

SOUTHEAST TEXAS

CITY           SKY/WX    TMP DP  RH WIND       PRES   REMARKS
COLLEGE STN    CLOUDY    69  67  93 E14       29.65F
CALDWELL       CLOUDY    68  66  94 N8        29.71R
CROCKETT       LGT RAIN  66  66 100 NE6       29.76R
BRENHAM          N/A    N/A N/A N/A MISG        N/A
HUNTSVILLE     TSTM      69  67  93 W9        29.80R FOG
CONROE         TSTM      67  67 100 E8G20     29.80R VSB 1/2
HOUSTON BUSH   CLOUDY    70  70 100 CALM      29.69R
HOUSTON HOBBY  CLOUDY    76  75  97 S5        29.68R
PERLAND        CLOUDY    78  75  90 S8        29.70R
WHARTON        CLOUDY    76  74  94 CALM      29.69R FOG
$$

THE UPPER TEXAS COAST

CITY           SKY/WX    TMP DP  RH WIND       PRES   REMARKS
ORANGE         TSTM      68  65  90 N10       29.74R
PORT ARTHUR    LGT RAIN  75  74  96 W6        29.72R
GALVESTON      CLOUDY    76  75  97 S8        29.71R FOG
ANGLETON       CLOUDY    77  75  93 S8        29.69R
BAY CITY       CLOUDY    77  76  96 S3        29.67S FOG
$$

TEXAS COASTAL BEND, RIO GRANDE PLAINS DEEP SOUTH TEXAS

CITY           SKY/WX    TMP DP  RH WIND       PRES   REMARKS
VICTORIA       CLOUDY    77  75  93 N3        29.67R FOG
BEEVILLE       PTSUNNY   72  60  66 NE9       29.68R
ROCKPORT       CLOUDY    79  74  84 CALM      29.66R HAZE
PORT ARANSAS   CLOUDY    78  77  98 CALM      29.66R FOG
PORT LAVACA      N/A     75  75 100 CALM      29.66R FOG
CORPUS CHRISTI CLOUDY    78  75  90 CALM      29.66R FOG
KINGSVILLE NAS CLOUDY    78  78 100 E5        29.66R FOG
COTULLA        MOSUNNY   68  57  68 N8        29.71R
LAREDO         PTSUNNY   77  72  84 N15       29.69R
BROWNSVILLE    CLOUDY    78  77  96 S16       29.59R FOG
PORT ISABEL    CLOUDY    80  77  90 S7        29.60R FOG
HEBBRONVILLE   CLOUDY    77  73  88 N5        29.69R FOG
MCALLEN        CLOUDY    81  75  82 CALM      29.63R HAZE
WESLACO        CLOUDY    78  75  89 CALM      29.61R FOG
FALFURRIAS     CLOUDY    79  74  85 CALM      29.67R
EDINBURG       CLOUDY    80  75  85 CALM      29.62R HAZE
$$




USA.gov is the U.S. government's official web portal to all federal, state and local government web resources and services.